Nome, AK

9:07 AM AKDT on October 19, 2017 (GMT -0800)
Nome

Weather History for PAOM - October, 2010

Change the Weather History Date:

Thursday, October 14, 2010

  Actual Average Record
Temperature  
Mean Temperature 36 °F 30 °F  
Max Temperature 38 °F 35 °F 47 °F (1969)
Min Temperature 33 °F 24 °F 4 °F (1996)
Degree Days  
Heating Degree Days 29 35  
Month to date heating degree days 424 454  
Since 1 July heating degree days 1786 1980  
Cooling Degree Days 0 0  
Month to date cooling degree days 0 0  
Year to date cooling degree days 2 3  
Moisture  
Dew Point 35 °F    
Average Humidity 0    
Maximum Humidity 0    
Minimum Humidity 0    
Precipitation  
Precipitation 0.16 in 0.05 in 0.70 in (1958)
Month to date precipitation 1.06 0.82  
Year to date precipitation 10.53 13.72  
Snow  
Snow 0.00 in 0.20 in 2.10 in (1959)
Month to date snowfall 2.1 1.3  
Since 1 July snowfall 2.1 1.9  
Since 1 September snowfall 2.1 1.9  
Snow Depth 0.00 in    
Sea Level Pressure  
Sea Level Pressure 29.77 in    
Wind  
Wind Speed 9 mph (SE)    
Max Wind Speed 13 mph    
Max Gust Speed 17 mph    
Visibility 9 miles    
Events Rain    
T = Trace of Precipitation, MM = Missing Value Source: NWS Daily Summary

Daily Weather History Graph

Daily Weather History Graph

Search for Another Location

Airport or City:

Trip Planner

Search our weather history database for the weather conditions in past years. The results will help you decide how hot, cold, wet, or windy it might be!

Date:

Astronomy

Oct. 14, 2010 Rise Set
Actual Time 9:50 AM AKDT 7:43 PM AKDT
Civil Twilight 9:01 AM AKDT 8:32 PM AKDT
Nautical Twilight 8:05 AM AKDT 9:28 PM AKDT
Astronomical Twilight 7:08 AM AKDT 10:25 PM AKDT
Moon 6:28 PM AKDT (10/14) No Moon Set
Length of Visible Light 11h 30m
Length of Day
9h 52m
Waxing Crescent, 49% of the Moon is Illuminated
Oct 14
Waxing Crescent
Oct 14
First Quarter
Oct 22
Full
Oct 30
Last Quarter
Nov 5
New

Hourly Weather History & Observations

Time (AKDT) Temp. Windchill Dew Point Humidity Pressure Visibility Wind Dir Wind Speed Gust Speed Precip Events Conditions
12:01 AM 37.4 °F 32.8 °F 35.6 °F 93% 29.80 in 9.0 mi SSE 5.8 mph - 0.00 in Rain Light Rain
12:53 AM 37.0 °F 33.3 °F 36.0 °F 96% 29.80 in 9.0 mi South 4.6 mph - 0.01 in Rain Light Rain
1:46 AM 37.4 °F 34.9 °F 35.6 °F 93% 29.79 in 7.0 mi SE 3.5 mph - 0.02 in Rain Light Rain
1:53 AM 37.0 °F 34.5 °F 36.0 °F 96% 29.80 in 8.0 mi East 3.5 mph - 0.03 in Rain Light Rain
2:06 AM 35.6 °F 31.7 °F 35.6 °F 100% 29.79 in 9.0 mi SE 4.6 mph - 0.00 in Rain Light Rain
2:14 AM 37.4 °F 33.8 °F 35.6 °F 93% 29.79 in 10.0 mi SSE 4.6 mph - 0.00 in Rain Light Rain
2:34 AM 37.4 °F 32.8 °F 35.6 °F 93% 29.79 in 9.0 mi SSE 5.8 mph - 0.01 in Rain Light Rain
2:53 AM 37.4 °F 32.1 °F 35.6 °F 93% 29.79 in 10.0 mi South 6.9 mph - N/A Rain Light Rain
3:39 AM 37.4 °F 31.4 °F 35.6 °F 93% 29.78 in 10.0 mi South 8.1 mph - 0.01 in Rain Light Rain
3:53 AM 37.9 °F 33.5 °F 35.1 °F 89% 29.78 in 10.0 mi South 5.8 mph - 0.01 in   Overcast
4:11 AM 37.4 °F 32.1 °F 35.6 °F 93% 29.78 in 10.0 mi South 6.9 mph - 0.00 in Rain Light Rain
4:19 AM 37.4 °F 31.4 °F 35.6 °F 93% 29.78 in 10.0 mi South 8.1 mph - 0.00 in   Overcast
4:53 AM 37.9 °F 32.1 °F 36.0 °F 93% 29.78 in 10.0 mi South 8.1 mph - 0.00 in   Overcast
5:21 AM 37.4 °F 30.8 °F 35.6 °F 93% 29.77 in 10.0 mi South 9.2 mph - 0.00 in   Overcast
5:49 AM 37.4 °F 31.4 °F 35.6 °F 93% 29.77 in 10.0 mi South 8.1 mph - 0.00 in Rain Light Rain
5:53 AM 37.9 °F 32.1 °F 36.0 °F 93% 29.77 in 10.0 mi SSE 8.1 mph - 0.00 in Rain Light Rain
6:11 AM 37.4 °F 32.1 °F 35.6 °F 93% 29.76 in 10.0 mi SSE 6.9 mph - 0.01 in Rain Light Rain
6:50 AM 37.4 °F 30.3 °F 35.6 °F 93% 29.76 in 10.0 mi South 10.4 mph - 0.02 in   Overcast
6:53 AM 37.9 °F 30.5 °F 36.0 °F 93% 29.76 in 10.0 mi SSE 11.5 mph - 0.02 in Rain Light Rain
7:53 AM 37.0 °F 31.6 °F 35.1 °F 93% 29.76 in 10.0 mi SSE 6.9 mph - 0.02 in Rain Light Rain
8:53 AM 37.9 °F 30.5 °F 36.0 °F 93% 29.76 in 10.0 mi South 11.5 mph - 0.02 in Rain Light Rain
9:53 AM 37.0 °F 30.4 °F 35.1 °F 93% 29.76 in 10.0 mi SSE 9.2 mph - 0.02 in Rain Light Rain
10:53 AM 37.0 °F 29.3 °F 35.1 °F 93% 29.76 in 10.0 mi SSE 11.5 mph - 0.01 in Rain Light Rain
11:53 AM 37.0 °F 30.4 °F 35.1 °F 93% 29.76 in 10.0 mi SSE 9.2 mph - 0.00 in Rain Light Rain
1:51 PM 37.4 °F 29.3 °F 35.6 °F 93% 29.76 in 10.0 mi SE 12.7 mph - 0.00 in Rain Light Rain
1:53 PM 37.0 °F 29.3 °F 35.1 °F 93% 29.76 in 10.0 mi SE 11.5 mph - 0.00 in Rain Light Rain
2:53 PM 37.0 °F 30.4 °F 35.1 °F 93% 29.76 in 9.0 mi SE 9.2 mph - 0.00 in Rain Light Rain
3:53 PM 37.0 °F 29.8 °F 34.0 °F 89% 29.76 in 7.0 mi SE 10.4 mph - 0.01 in Rain Light Rain
4:32 PM 37.4 °F 30.3 °F 35.6 °F 93% 29.76 in 5.0 mi SE 10.4 mph - 0.01 in Rain Light Rain
4:53 PM 37.0 °F 30.4 °F 35.1 °F 93% 29.76 in 5.0 mi SE 9.2 mph - 0.01 in Rain Light Rain
5:53 PM 37.0 °F 29.3 °F 35.1 °F 93% 29.76 in 10.0 mi SE 11.5 mph - 0.00 in Rain Light Rain
6:53 PM 36.0 °F 29.0 °F 34.0 °F 93% 29.77 in 10.0 mi ESE 9.2 mph - 0.00 in   Overcast
7:53 PM 35.1 °F 27.4 °F 34.0 °F 96% 29.77 in 10.0 mi East 10.4 mph - N/A   Overcast
8:53 PM 35.1 °F 28.6 °F 34.0 °F 96% 29.78 in 10.0 mi East 8.1 mph - 0.00 in   Overcast
9:24 PM 35.6 °F 29.9 °F 33.8 °F 93% 29.78 in 10.0 mi East 6.9 mph - 0.00 in Rain Light Rain
9:53 PM 35.1 °F 29.3 °F 33.1 °F 92% 29.78 in 10.0 mi East 6.9 mph - 0.00 in Rain Light Rain
10:25 PM 33.8 °F 27.0 °F 33.8 °F 100% 29.78 in 10.0 mi East 8.1 mph - 0.00 in Rain Light Rain
10:53 PM 34.0 °F 28.0 °F 32.0 °F 92% 29.79 in 10.0 mi East 6.9 mph - 0.00 in Rain Light Rain
11:53 PM 33.1 °F 26.1 °F 32.0 °F 96% 29.80 in 10.0 mi East 8.1 mph - 0.00 in Rain Light Rain